Tracking 28799 objects as of 17-Apr-2024
HD Live streaming from Space Station
objects crossing your sky now

THOR ABLESTAR DEB

Track THOR ABLESTAR DEB now!
10-day predictions


NORAD ID: 469
Int'l Code: 1961-015FF
Perigee: 755.0 km
Apogee: 833.9 km
Inclination: 66.8 °
Period: 100.6 minutes
Semi major axis: 7165 km
RCS: 0.056 m2 (small)
Launch date: June 29, 1961
Source: United States (US)
Launch site: AIR FORCE EASTERN TEST RANGE (AFETR)

Note: This is SATELLITE DEBRIS
Your satellite tracking list
Your tracking list is empty




NASA's NSSDC Master Catalog

Two Line Element Set (TLE):
1 00469U 61015FF  24107.27318763  .00003790  00000-0  14362-2 0  9990
2 00469  66.8346  68.2666 0055055  68.4834 292.2123 14.31324113239492
Source of the keplerian elements: AFSPC